Location: Esp�s Alto
(42.4476°N, 0.5876°E)
Time: 00:15:19
(UTC+00:00)

Cosmos 1300 - Pass Details

Date: 22 October 2019
Orbit: 511 x 515 km, 82.5° (Epoch: 16 November)

Event Time Altitude Azimuth Distance (km) Brightness Sun altitude
Rises 05:15:29 0° 359° (N) 2,635 6.3 -12.3°
Reaches altitude 10° 05:17:44 10° 8° (N) 1,743 5.4 -11.9°
Maximum altitude 05:21:19 38° 77° (ENE) 798 4.3 -11.2°
Drops below altitude 10° 05:24:52 10° 147° (SSE) 1,728 5.9 -10.5°
Sets 05:27:05 0° 156° (SSE) 2,609 6.7 -10.1°
